Binghamton, NY

1:39 PM EST on December 06, 2019 (GMT -0500)
Binghamton Regional-Link

Weather History for KBGM - May, 2019

Change the Weather History Date:

Monday, May 13, 2019

  Actual Average Record
Temperature  
Mean Temperature 39 °F 55 °F  
Max Temperature 41 °F 65 °F 83 °F (1985)
Min Temperature 37 °F 45 °F 29 °F (2005)
Degree Days  
Heating Degree Days 26 11  
Month to date heating degree days 158 161  
Since 1 July heating degree days 6948 6960  
Cooling Degree Days 0 1  
Month to date cooling degree days 0 1  
Year to date cooling degree days 0 5  
Moisture  
Dew Point 38 °F    
Average Humidity 96    
Maximum Humidity 100    
Minimum Humidity 92    
Precipitation  
Precipitation 0.87 in 0.11 in 1.36 in (1964)
Month to date precipitation 3.30 1.41  
Year to date precipitation 14.78 12.59  
Snow  
Snow 0.00 in 0.00 in T in (2013)
Month to date snowfall 0.0 0.1  
Since 1 July snowfall 81.4 83.4  
Snow Depth 0.00 in    
Sea Level Pressure  
Sea Level Pressure 29.80 in    
Wind  
Wind Speed 9 mph (SE)    
Max Wind Speed 16 mph    
Max Gust Speed 21 mph    
Visibility 5 miles    
Events Rain    
T = Trace of Precipitation, MM = Missing Value Source: NWS Daily Summary

Daily Weather History Graph

Daily Weather History Graph

Search for Another Location

Airport or City:

Astronomy

May. 13, 2019 Rise Set
Actual Time 5:45 AM EDT 8:15 PM EDT
Civil Twilight 5:13 AM EDT 8:47 PM EDT
Nautical Twilight 4:33 AM EDT 9:27 PM EDT
Astronomical Twilight 3:49 AM EDT 10:12 PM EDT
Moon 2:16 PM EDT (5/13) 3:10 AM EDT (5/13)
Length of Visible Light 15h 34m
Length of Day
14h 30m
Waxing Gibbous, 68% of the Moon is Illuminated
May 13
Waxing Gibbous
May 18
Full
May 26
Last Quarter
Jun 3
New
Jun 10
First Quarter

Hourly Weather History & Observations

Time (EDT) Temp. Windchill Dew Point Humidity Pressure Visibility Wind Dir Wind Speed Gust Speed Precip Events Conditions
12:05 AM 37.9 °F 31.5 °F 37.0 °F 97% 29.87 in 4.0 mi East 9.2 mph - N/A   Overcast
12:53 AM 37.9 °F 30.9 °F 37.0 °F 97% 29.89 in 5.0 mi SE 10.4 mph - N/A   Overcast
1:42 AM 37.9 °F 30.9 °F 37.0 °F 97% 29.85 in 2.5 mi ESE 10.4 mph - N/A   Overcast
1:53 AM 37.9 °F 30.5 °F 36.0 °F 93% 29.87 in 3.0 mi ESE 11.5 mph - N/A   Overcast
2:05 AM 37.9 °F 30.9 °F 37.0 °F 97% 29.84 in 4.0 mi SE 10.4 mph - N/A   Overcast
2:20 AM 37.0 °F 29.3 °F 36.0 °F 96% 29.83 in 8.0 mi ESE 11.5 mph - N/A   Overcast
2:50 AM 37.4 °F 30.3 °F 35.6 °F 93% 29.82 in 10.0 mi SE 10.4 mph - N/A   Overcast
2:53 AM 37.9 °F 32.1 °F 36.0 °F 93% 29.86 in 10.0 mi ESE 8.1 mph - N/A   Overcast
3:22 AM 37.9 °F 31.5 °F 36.0 °F 93% 29.82 in 10.0 mi SE 9.2 mph - N/A   Overcast
3:53 AM 37.9 °F 30.9 °F 36.0 °F 93% 29.83 in 7.0 mi SE 10.4 mph - N/A   Overcast
4:53 AM 37.9 °F 32.7 °F 37.0 °F 97% 29.83 in 10.0 mi SE 6.9 mph - N/A   Overcast
5:53 AM 37.9 °F 30.5 °F 37.0 °F 97% 29.82 in 7.0 mi SE 11.5 mph - 0.01 in Rain Light Rain
6:16 AM 37.9 °F 30.0 °F 37.0 °F 97% 29.79 in 2.5 mi SE 12.7 mph - 0.00 in Rain Light Rain
6:28 AM 37.9 °F 30.0 °F 37.0 °F 97% 29.79 in 2.5 mi SE 12.7 mph - 0.01 in Rain Light Rain
6:50 AM 37.4 °F 28.9 °F 37.4 °F 100% 29.79 in 4.0 mi SE 13.8 mph - 0.01 in Rain Light Rain
6:53 AM 37.9 °F 30.0 °F 37.0 °F 97% 29.83 in 4.0 mi SE 12.7 mph - 0.01 in Rain Light Rain
7:34 AM 37.9 °F 30.0 °F 37.0 °F 97% 29.81 in 1.8 mi SSE 12.7 mph - 0.01 in Rain Light Rain
7:53 AM 37.9 °F 30.0 °F 37.9 °F 100% 29.85 in 2.0 mi SSE 12.7 mph - 0.03 in Rain Light Rain
8:20 AM 39.0 °F 32.8 °F 37.9 °F 96% 29.81 in 3.0 mi SSE 9.2 mph - 0.02 in Rain Light Rain
8:28 AM 39.0 °F 33.4 °F 37.9 °F 96% 29.81 in 2.5 mi SE 8.1 mph - 0.03 in Rain Light Rain
8:37 AM 39.0 °F 32.8 °F 37.9 °F 96% 29.81 in 3.0 mi SSE 9.2 mph - 0.04 in Rain Light Rain
8:53 AM 39.0 °F 33.4 °F 39.0 °F 100% 29.85 in 3.0 mi SSE 8.1 mph - 0.04 in Rain Light Rain
9:09 AM 39.0 °F 31.8 °F 37.9 °F 96% 29.80 in 2.0 mi SSE 11.5 mph 19.6 mph 0.02 in Rain Rain
9:16 AM 39.0 °F 32.3 °F 39.0 °F 100% 29.80 in 2.0 mi SSE 10.4 mph 17.3 mph 0.03 in Rain Light Rain
9:53 AM 39.9 °F 33.4 °F 39.0 °F 97% 29.83 in 2.0 mi SSE 10.4 mph - 0.04 in Rain Light Rain
10:26 AM 39.9 °F 33.4 °F 39.0 °F 97% 29.79 in 2.0 mi SSE 10.4 mph - 0.01 in Rain Light Rain
10:36 AM 39.9 °F 32.5 °F 39.0 °F 97% 29.79 in 2.0 mi SSE 12.7 mph - 0.01 in Rain Light Rain
10:53 AM 39.9 °F 32.9 °F 39.0 °F 97% 29.82 in 2.0 mi SE 11.5 mph - 0.01 in   Overcast
11:26 AM 39.9 °F 33.4 °F 39.0 °F 97% 29.78 in 1.8 mi SE 10.4 mph - 0.01 in Rain Light Rain
11:53 AM 41.0 °F 35.8 °F 39.9 °F 96% 29.81 in 2.0 mi SE 8.1 mph - 0.01 in Rain Light Rain
12:22 PM 41.0 °F 34.3 °F 39.9 °F 96% 29.78 in 1.8 mi SSE 11.5 mph - 0.01 in Rain Light Rain
12:28 PM 39.9 °F 32.9 °F 39.0 °F 97% 29.78 in 2.0 mi SSE 11.5 mph - 0.01 in Rain Light Rain
12:36 PM 39.9 °F 33.4 °F 39.0 °F 97% 29.79 in 1.8 mi SSE 10.4 mph - 0.01 in Rain Light Rain
12:53 PM 39.9 °F 33.9 °F 39.9 °F 100% 29.82 in 1.0 mi SSE 9.2 mph - 0.06 in Rain Heavy Rain
1:40 PM 39.9 °F 34.5 °F 39.9 °F 100% 29.79 in 1.0 mi SSE 8.1 mph - 0.13 in Rain Rain
1:47 PM 41.0 °F 35.8 °F 39.2 °F 93% 29.78 in 2.0 mi SE 8.1 mph - 0.14 in Rain Light Rain
1:53 PM 41.0 °F 35.2 °F 39.9 °F 96% 29.81 in 2.0 mi SE 9.2 mph - 0.16 in Rain Light Rain
2:39 PM 41.0 °F 35.2 °F 39.9 °F 96% 29.78 in 5.0 mi SE 9.2 mph - 0.04 in Rain Light Rain
2:53 PM 41.0 °F 35.2 °F 39.0 °F 93% 29.81 in 4.0 mi SSE 9.2 mph - 0.06 in Rain Light Rain
3:21 PM 41.0 °F 34.3 °F 39.0 °F 93% 29.77 in 6.0 mi SSE 11.5 mph - 0.05 in Rain Light Rain
3:35 PM 41.0 °F 34.7 °F 39.0 °F 93% 29.76 in 6.0 mi SE 10.4 mph - 0.06 in Rain Light Rain
3:43 PM 39.9 °F 32.1 °F 39.0 °F 97% 29.76 in 5.0 mi SE 13.8 mph - 0.08 in Rain Rain
3:53 PM 39.9 °F 32.9 °F 39.0 °F 97% 29.80 in 8.0 mi SE 11.5 mph - 0.09 in Rain Light Rain
4:27 PM 41.0 °F 35.2 °F 39.9 °F 96% 29.76 in 5.0 mi SSE 9.2 mph - 0.07 in Rain Rain
4:53 PM 39.9 °F 32.5 °F 39.0 °F 97% 29.79 in 6.0 mi ESE 12.7 mph - 0.11 in Rain Light Rain
5:53 PM 39.9 °F 33.9 °F 39.0 °F 97% 29.80 in 8.0 mi SE 9.2 mph - 0.11 in Rain Light Rain
6:13 PM 39.9 °F 33.4 °F 39.0 °F 97% 29.76 in 10.0 mi SE 10.4 mph - 0.01 in Rain Light Rain
6:18 PM 39.9 °F 33.4 °F 39.0 °F 97% 29.76 in 10.0 mi SE 10.4 mph - 0.01 in Rain Light Rain
6:25 PM 39.9 °F 33.9 °F 39.0 °F 97% 29.77 in 10.0 mi SE 9.2 mph - 0.01 in Rain Light Rain
6:53 PM 39.9 °F 33.9 °F 37.9 °F 93% 29.80 in 10.0 mi SE 9.2 mph - 0.01 in Rain Light Rain
7:28 PM 39.9 °F 34.5 °F 39.0 °F 97% 29.77 in 10.0 mi SSE 8.1 mph - 0.01 in Rain Light Rain
7:43 PM 39.9 °F 34.5 °F 39.0 °F 97% 29.77 in 9.0 mi SSE 8.1 mph - 0.01 in   Overcast
7:53 PM 39.9 °F 34.5 °F 39.0 °F 97% 29.81 in 7.0 mi SSE 8.1 mph - 0.01 in   Overcast
8:20 PM 39.9 °F 34.5 °F 39.0 °F 97% 29.77 in 7.0 mi SE 8.1 mph - N/A   Overcast
8:27 PM 39.9 °F 35.1 °F 39.0 °F 97% 29.77 in 10.0 mi SSE 6.9 mph - N/A   Overcast
8:53 PM 39.9 °F 34.5 °F 39.0 °F 97% 29.81 in 9.0 mi SSE 8.1 mph - 0.00 in Rain Light Rain
9:30 PM 39.9 °F 35.1 °F 39.0 °F 97% 29.78 in 2.5 mi SSE 6.9 mph - 0.02 in Rain Light Rain
9:41 PM 39.9 °F 35.1 °F 39.9 °F 100% 29.78 in 3.0 mi SSE 6.9 mph - 0.02 in Rain Light Rain
9:53 PM 39.9 °F 35.1 °F 39.0 °F 97% 29.81 in 3.0 mi SSE 6.9 mph - 0.03 in Rain Light Rain
10:02 PM 39.9 °F 34.5 °F 39.9 °F 100% 29.78 in 2.5 mi SSE 8.1 mph - 0.01 in Rain Light Rain
10:21 PM 39.9 °F 34.5 °F 39.9 °F 100% 29.78 in 4.0 mi SSE 8.1 mph - 0.03 in Rain Light Rain
10:53 PM 39.9 °F 35.1 °F 39.9 °F 100% 29.81 in 3.0 mi SSE 6.9 mph - 0.04 in   Overcast
11:05 PM 39.9 °F 35.1 °F 39.9 °F 100% 29.78 in 2.5 mi South 6.9 mph - N/A   Overcast
11:53 PM 39.9 °F 35.1 °F 39.9 °F 100% 29.81 in 2.5 mi South 6.9 mph - 0.01 in Rain Light Rain